TimeEDT,TemperatureF,Dew PointF,Humidity,Sea Level PressureIn,VisibilityMPH,Wind Direction,Wind SpeedMPH,Gust SpeedMPH,PrecipitationIn,Events,Conditions,WindDirDegrees,DateUTC
12:28 AM,53.6,46.4,77,29.88,10.0,WSW,10.4,-,N/A,,Overcast,250,2013-10-17 04:28:00
12:38 AM,53.6,46.4,77,29.88,10.0,WSW,9.2,-,N/A,,Overcast,250,2013-10-17 04:38:00
12:58 AM,53.1,46.8,79,29.89,10.0,WSW,8.1,-,N/A,,Overcast,250,2013-10-17 04:58:00
1:58 AM,52.9,46.9,80,29.90,10.0,West,8.1,-,N/A,,Overcast,260,2013-10-17 05:58:00
2:58 AM,52.7,46.8,80,29.88,10.0,West,8.1,-,N/A,,Overcast,260,2013-10-17 06:58:00
3:58 AM,52.5,46.9,81,29.87,10.0,West,5.8,-,N/A,,Overcast,260,2013-10-17 07:58:00
4:58 AM,52.3,47.3,83,29.88,10.0,WSW,6.9,-,N/A,,Overcast,250,2013-10-17 08:58:00
5:58 AM,52.2,47.3,83,29.88,10.0,SW,4.6,-,N/A,,Overcast,220,2013-10-17 09:58:00
6:08 AM,51.8,46.4,82,29.86,10.0,SW,4.6,-,N/A,,Overcast,230,2013-10-17 10:08:00
6:58 AM,52.0,47.1,83,29.88,10.0,SW,4.6,-,N/A,,Overcast,220,2013-10-17 10:58:00
7:58 AM,52.2,46.9,82,29.88,10.0,SW,5.8,-,N/A,,Overcast,220,2013-10-17 11:58:00
8:58 AM,52.5,47.3,82,29.89,10.0,SW,2.3,-,N/A,,Overcast,230,2013-10-17 12:58:00
9:28 AM,53.6,48.2,82,29.86,10.0,WSW,2.3,-,N/A,,Overcast,240,2013-10-17 13:28:00
9:58 AM,53.2,48.0,82,29.88,10.0,Variable,4.6,-,N/A,,Overcast,0,2013-10-17 13:58:00
10:18 AM,53.6,48.2,82,29.86,10.0,West,5.8,-,N/A,,Mostly Cloudy,260,2013-10-17 14:18:00
10:58 AM,53.6,48.2,82,29.86,10.0,SSW,3.5,-,N/A,,Mostly Cloudy,210,2013-10-17 14:58:00
11:58 AM,54.5,48.4,80,29.85,10.0,Variable,2.3,-,N/A,,Partly Cloudy,0,2013-10-17 15:58:00
12:41 PM,53.6,48.2,82,29.82,10.0,South,3.5,-,N/A,Rain,Light Rain,190,2013-10-17 16:41:00
12:58 PM,53.8,49.5,85,29.83,10.0,SW,5.8,-,0.00,Rain,Light Rain,220,2013-10-17 16:58:00
1:24 PM,53.6,50.0,88,29.81,10.0,SSW,5.8,-,N/A,,Mostly Cloudy,210,2013-10-17 17:24:00
1:48 PM,53.6,50.0,88,29.78,10.0,SW,4.6,-,N/A,Rain,Light Rain,230,2013-10-17 17:48:00
1:58 PM,54.1,50.2,86,29.80,10.0,SSW,5.8,-,0.01,Rain,Light Rain,200,2013-10-17 17:58:00
2:28 PM,53.6,50.0,88,29.78,9.0,SSW,5.8,-,N/A,Rain,Light Rain,200,2013-10-17 18:28:00
2:38 PM,53.6,51.8,94,29.78,8.0,SW,8.1,-,N/A,Rain,Light Rain,220,2013-10-17 18:38:00
2:58 PM,52.9,51.4,95,29.78,5.0,WSW,5.8,-,0.04,Rain,Light Rain,240,2013-10-17 18:58:00
3:13 PM,51.8,51.8,100,29.75,7.0,SW,8.1,-,N/A,Rain,Light Rain,230,2013-10-17 19:13:00
3:28 PM,51.8,51.8,100,29.76,8.0,SW,8.1,-,N/A,Rain,Light Rain,230,2013-10-17 19:28:00
3:58 PM,52.5,51.4,96,29.78,9.0,WSW,10.4,-,0.03,Rain,Light Rain,240,2013-10-17 19:58:00
4:03 PM,51.8,51.8,100,29.76,9.0,WSW,9.2,-,N/A,Rain,Light Rain,240,2013-10-17 20:03:00
4:13 PM,51.8,50.0,94,29.76,9.0,WSW,11.5,-,N/A,Rain,Light Rain,240,2013-10-17 20:13:00
4:18 PM,51.8,50.0,94,29.76,10.0,WSW,8.1,-,N/A,Rain,Light Rain,240,2013-10-17 20:18:00
4:58 PM,51.4,50.0,95,29.76,10.0,WSW,8.1,-,0.03,Rain,Light Rain,240,2013-10-17 20:58:00
5:08 PM,51.8,50.0,94,29.74,10.0,SW,10.4,-,N/A,Rain,Light Rain,230,2013-10-17 21:08:00
5:10 PM,51.8,50.0,94,29.74,10.0,SW,8.1,-,N/A,,Scattered Clouds,230,2013-10-17 21:10:00
5:15 PM,51.8,50.0,94,29.74,10.0,WSW,10.4,-,N/A,,Mostly Cloudy,240,2013-10-17 21:15:00
5:19 PM,51.8,50.0,94,29.74,10.0,WSW,12.7,-,N/A,Rain,Light Rain,240,2013-10-17 21:19:00
5:32 PM,51.8,50.0,94,29.74,10.0,SW,6.9,-,N/A,,Mostly Cloudy,230,2013-10-17 21:32:00
5:58 PM,51.1,49.1,93,29.76,10.0,SW,10.4,-,0.01,,Overcast,230,2013-10-17 21:58:00
6:03 PM,51.8,48.2,88,29.74,10.0,SW,13.8,-,N/A,,Overcast,230,2013-10-17 22:03:00
6:08 PM,51.8,48.2,88,29.74,10.0,WSW,11.5,-,N/A,,Mostly Cloudy,240,2013-10-17 22:08:00
6:13 PM,50.0,48.2,94,29.74,10.0,WSW,8.1,-,N/A,,Mostly Cloudy,240,2013-10-17 22:13:00
6:58 PM,50.5,48.6,93,29.76,10.0,SW,8.1,-,N/A,,Overcast,230,2013-10-17 22:58:00
7:18 PM,50.0,48.2,94,29.74,10.0,SSW,9.2,-,N/A,,Overcast,210,2013-10-17 23:18:00
7:28 PM,50.0,48.2,94,29.75,10.0,SW,8.1,-,N/A,,Overcast,220,2013-10-17 23:28:00
7:58 PM,50.0,48.4,94,29.77,10.0,SW,10.4,-,N/A,,Overcast,220,2013-10-17 23:58:00
8:56 PM,50.0,46.4,87,29.76,9.0,SW,9.2,-,N/A,Rain,Light Rain,230,2013-10-18 00:56:00
8:58 PM,50.0,46.4,87,29.78,9.0,SW,10.4,-,N/A,Rain,Light Rain,230,2013-10-18 00:58:00
9:03 PM,50.0,48.2,94,29.76,9.0,WSW,9.2,-,N/A,Rain,Light Rain,240,2013-10-18 01:03:00
9:05 PM,50.0,48.2,94,29.76,10.0,SW,8.1,-,N/A,,Overcast,220,2013-10-18 01:05:00
9:13 PM,50.0,48.2,94,29.76,10.0,SW,8.1,-,N/A,,Light Drizzle,220,2013-10-18 01:13:00
9:22 PM,50.0,48.2,94,29.76,10.0,SW,8.1,-,N/A,,Overcast,220,2013-10-18 01:22:00
9:37 PM,50.0,48.2,94,29.77,10.0,WSW,8.1,-,N/A,,Overcast,240,2013-10-18 01:37:00
9:42 PM,50.0,48.2,94,29.76,10.0,WSW,9.2,-,N/A,,Overcast,240,2013-10-18 01:42:00
9:47 PM,50.0,48.2,94,29.76,10.0,SW,12.7,-,N/A,,Overcast,230,2013-10-18 01:47:00
9:58 PM,50.0,47.8,92,29.78,10.0,SW,12.7,-,0.00,,Overcast,230,2013-10-18 01:58:00
10:13 PM,50.0,48.2,94,29.77,9.0,WSW,9.2,-,N/A,,Overcast,240,2013-10-18 02:13:00
10:18 PM,50.0,48.2,94,29.77,9.0,WSW,10.4,-,N/A,,Overcast,240,2013-10-18 02:18:00
10:23 PM,50.0,48.2,94,29.77,10.0,WSW,8.1,-,N/A,,Overcast,240,2013-10-18 02:23:00
10:33 PM,50.0,48.2,94,29.77,10.0,WSW,9.2,-,N/A,,Overcast,240,2013-10-18 02:33:00
10:58 PM,49.5,48.7,97,29.80,10.0,West,11.5,-,N/A,,Overcast,260,2013-10-18 02:58:00
11:08 PM,50.0,48.2,94,29.79,10.0,West,9.2,-,N/A,,Overcast,280,2013-10-18 03:08:00
11:18 PM,50.0,48.2,94,29.79,10.0,West,10.4,-,N/A,,Overcast,280,2013-10-18 03:18:00
11:28 PM,50.0,46.4,87,29.80,10.0,West,10.4,-,N/A,,Overcast,280,2013-10-18 03:28:00
11:48 PM,50.0,44.6,82,29.80,10.0,West,12.7,23.0,N/A,,Overcast,270,2013-10-18 03:48:00
11:58 PM,49.1,45.0,86,29.82,10.0,WNW,10.4,-,N/A,,Mostly Cloudy,290,2013-10-18 03:58:00